Change the Weather History Date:

Sunday, November 18, 2012

  Actual Average Record
Temperature  
Mean Temperature 59 °F 60 °F  
Max Temperature 73 °F 71 °F 88 °F (1986)
Min Temperature 44 °F 49 °F 22 °F (1886)
Degree Days  
Heating Degree Days 6 6  
Month to date heating degree days 69 79  
Since 1 July heating degree days 124 112  
Cooling Degree Days 0 2  
Month to date cooling degree days 67 50  
Year to date cooling degree days 3548 3105  
Growing Degree Days 8 (Base 50)    
Moisture  
Dew Point 49 °F    
Average Humidity 70    
Maximum Humidity 93    
Minimum Humidity 47    
Precipitation  
Precipitation 0.00 in 0.07 in 2.20 in (1971)
Month to date precipitation 0.03 1.52  
Year to date precipitation 38.79 29.60  
Snow  
Snow 0.00 in - - ()
Month to date snowfall 0.0  
Since 1 July snowfall 0.0  
Since 1 September snowfall 0.0  
Snow Depth 0.00 in    
Sea Level Pressure  
Sea Level Pressure 30.21 in    
Wind  
Wind Speed 5 mph (SE)    
Max Wind Speed 15 mph    
Max Gust Speed 20 mph    
Visibility 10 miles    
Events      
T = Trace of Precipitation, MM = Missing Value Source: NWS Daily Summary

Daily Weather History Graph

Daily Weather History Graph

Search for Another Location

Airport or City:

Trip Planner

Search our weather history database for the weather conditions in past years. The results will help you decide how hot, cold, wet, or windy it might be!

Date:

Astronomy

Nov. 18, 2012 Rise Set
Actual Time 7:01 AM CST 5:37 PM CST
Civil Twilight 6:35 AM CST 6:02 PM CST
Nautical Twilight 6:06 AM CST 6:31 PM CST
Astronomical Twilight 5:38 AM CST 6:59 PM CST
Moon 11:33 AM CST (11/18) 10:51 PM CST (11/18)
Length of Visible Light 11h 26m
Length of Day
10h 36m
Waxing Crescent, 30% of the Moon is Illuminated
Nov 18
Waxing Crescent
Nov 20
First Quarter
Nov 28
Full
Dec 6
Last Quarter
Dec 13
New

Hourly Weather History & Observations

Time (CST) Temp. Dew Point Humidity Pressure Visibility Wind Dir Wind Speed Gust Speed Precip Events Conditions
12:53 AM 48.9 °F 42.1 °F 77% 30.25 in 10.0 mi Calm Calm - N/A   Clear
1:53 AM 48.0 °F 41.0 °F 77% 30.24 in 10.0 mi NW 3.5 mph - N/A   Clear
2:53 AM 48.0 °F 41.0 °F 77% 30.24 in 10.0 mi Calm Calm - N/A   Partly Cloudy
3:53 AM 48.0 °F 41.0 °F 77% 30.22 in 10.0 mi Calm Calm - N/A   Partly Cloudy
4:53 AM 46.9 °F 43.0 °F 86% 30.21 in 10.0 mi Calm Calm - N/A   Clear
5:53 AM 45.0 °F 42.1 °F 90% 30.23 in 10.0 mi Calm Calm - N/A   Partly Cloudy
6:53 AM 46.9 °F 44.1 °F 90% 30.23 in 10.0 mi Calm Calm - N/A   Partly Cloudy
7:53 AM 50.0 °F 46.9 °F 89% 30.25 in 10.0 mi Calm Calm - N/A   Partly Cloudy
8:53 AM 55.0 °F 50.0 °F 83% 30.26 in 10.0 mi East 3.5 mph - N/A   Partly Cloudy
9:53 AM 61.0 °F 52.0 °F 72% 30.26 in 10.0 mi East 3.5 mph - N/A   Partly Cloudy
10:53 AM 64.9 °F 53.1 °F 65% 30.26 in 10.0 mi SSE 8.1 mph - N/A   Partly Cloudy
11:53 AM 66.0 °F 53.1 °F 63% 30.23 in 10.0 mi SE 8.1 mph 17.3 mph N/A   Scattered Clouds
12:53 PM 69.1 °F 53.1 °F 57% 30.20 in 10.0 mi SE 9.2 mph - N/A   Scattered Clouds
1:53 PM 71.1 °F 51.1 °F 49% 30.17 in 10.0 mi SE 8.1 mph 17.3 mph N/A   Mostly Cloudy
2:53 PM 72.0 °F 51.1 °F 48% 30.15 in 10.0 mi South 10.4 mph - N/A   Mostly Cloudy
3:53 PM 72.0 °F 50.0 °F 46% 30.14 in 10.0 mi SSE 8.1 mph - N/A   Mostly Cloudy
4:53 PM 70.0 °F 50.0 °F 49% 30.15 in 10.0 mi South 10.4 mph - N/A   Mostly Cloudy
5:53 PM 68.0 °F 51.1 °F 55% 30.17 in 10.0 mi SE 5.8 mph - N/A   Overcast
6:53 PM 66.9 °F 53.1 °F 61% 30.19 in 10.0 mi SE 3.5 mph - N/A   Overcast
7:53 PM 66.2 °F 53.6 °F 64% 30.23 in 10.0 mi ESE 3.5 mph - N/A   Overcast
8:53 PM 64.9 °F 53.1 °F 65% 30.19 in 10.0 mi SE 9.2 mph - N/A   Overcast
9:53 PM 64.9 °F 53.1 °F 65% 30.18 in 10.0 mi SSE 11.5 mph - N/A   Mostly Cloudy
10:53 PM 62.6 °F 53.6 °F 72% 30.23 in 10.0 mi South 8.1 mph - N/A   Mostly Cloudy
11:53 PM 60.1 °F 54.0 °F 80% 30.19 in 10.0 mi SSE 6.9 mph - N/A   Mostly Cloudy